Regional Weather Roundup
Issued by NWS Wakefield, VA

Home | Current Version | Previous Version | Graphics & Text | Print | Product List | Glossary On
Versions: 1 2 3 4 5 6 7 8 9 10 11 12 13 14 15 16 17 18 19 20 21 22 23 24 25 26 27 28
000
ASUS41 KAKQ 230410
RWRAKQ

REGIONAL WEATHER ROUNDUP
NATIONAL WEATHER SERVICE WAKEFIELD VA
1200 AM EDT WED APR 23 2014

Note: "fair" indicates few or no clouds below 12,000 feet with no
significant weather and/or obstructions to visibility. * = Denotes
station may not report precipitation (e.g., rain,snow,etc.),
thunder or fog.

VAZ042-051-052>054-056-230500-
NORTHERN VIRGINIA

CITY           SKY/WX    TMP DP  RH WIND       PRES   REMARKS
WASH NATIONAL  MOCLDY    63  50  62 NW15G21   29.66R
DULLES         MOCLDY    57  47  69 N15G23    29.68R
FORT BELVOIR   CLEAR     60  52  74 NW10      29.66R
QUANTICO       CLEAR     60  50  69 N10       29.67R
FREDERICKSBRG* CLEAR     63  52  67 N9        29.65R
STAFFORD*      CLEAR     59  53  80 N8        29.71R
WARRENTON      MOCLDY    61  55  79 NE6       29.67R
CULPEPER*      PTCLDY    63  50  63 N16       29.68R
MANASSAS*      PTCLDY    59  50  72 N14G21    29.68R
LEESBURG*      PTCLDY    57  46  67 N15G23    29.71R
WINCHESTER     PTCLDY    54  41  62 NW15G22   29.71S
$$

VAZ048-049-060>072-079>083-230500-
CENTRAL AND SOUTH CENTRAL VIRGINIA...AND NORTH CENTRAL NORTH CAROLINA

CITY           SKY/WX    TMP DP  RH WIND       PRES   REMARKS
RICHMOND       MOCLDY    65  54  67 CALM      29.63R
CHESTERFIELD*  NOT AVBL
HANOVER        PTCLDY    59  52  77 CALM      29.64F
TAPPAHANNOCK*  PTCLDY    63  49  59 CALM      29.61F
CHARLOTTSVILLE PTCLDY    65  45  48 NW6       29.65S
ORANGE*        PTCLDY    61  48  63 N5G18     29.68R
LOUISA*        CLEAR     57  50  77 CALM      29.64R
FARMVILLE*     PTCLDY    64  52  63 W3        29.64R
SOUTH HILL*    PTCLDY    63  57  82 W3        29.71S
ROANOKE RAPIDS PTCLDY    50  43  76 SW6       29.65F
RALEIGH        PTCLDY    63  54  72 SW7       29.71S
$$

VAZ088>098-230500-
SOUTHEAST VIRGINIA

CITY           SKY/WX    TMP DP  RH WIND       PRES   REMARKS
NORFOLK        CLOUDY    65  52  62 SW3       29.62S
VIRGINIA BEACH CLOUDY    64  52  64 SW5       29.62S
NORFOLK NAVAL  CLOUDY    67  54  63 SW5       29.63F
WEST POINT*    CLOUDY    60  57  89 CALM      29.62S
NEWPORT NEWS   CLOUDY    68  55  63 SW7       29.62S
LANGLEY AFB    CLOUDY    65  55  68 S6        29.62S
FORT EUSTIS    MOCLDY    66  56  70 VRB5      29.61S
WILLIAMSBURG*    N/A     63  57  82 CALM      29.63S
FRANKLIN*      CLOUDY    64  57  77 W3        29.64S
WAKEFIELD      MOCLDY    64  57  78 SW3       29.63S
$$

VAZ020-022-025-037-045-230500-
WESTERN AND SOUTHWEST VIRGINIA

CITY           SKY/WX    TMP DP  RH WIND       PRES   REMARKS
STAUNTON*      CLEAR     60  33  37 NW12      29.71R
HOT SPRINGS VA CLEAR     48  36  61 W15G25    29.80S
LYNCHBURG      CLEAR     60  51  72 CALM      29.70R
DANVILLE       CLEAR     62  55  77 W6        29.70S
MARTINSVILLE   CLEAR     63  54  73 W5        29.74S
ROANOKE        MOCLDY    66  42  41 NW15      29.74R
BLACKSBURG     PTCLDY    63  46  55 NW13G18   29.78R
DUBLIN*        PTCLDY    60  41  49 W12       29.78S
MARION*        CLEAR     58  36  43 W18G31    29.83R
HILLSVILLE*    CLEAR     57  48  72 W9G16     29.83R
RICHLANDS*     CLEAR     59  37  44 NW9       29.85R
WISE*          CLEAR     55  32  41 NW13G18   29.88S
ABINGDON*      CLEAR     59  56  92 W6        29.85R
$$

MDZ021>025-VAZ099-100-230500-
SOUTHERN MARYLAND AND THE DELMARVA PENINSULA

CITY           SKY/WX    TMP DP  RH WIND       PRES   REMARKS
PATUXENT RIVER CLOUDY    59  54  83 NW3       29.62S
BAY BRIDGE APT NOT AVBL
LEONARDTOWN    PTCLDY    57  52  82 CALM      29.65R
DOVER          MOCLDY    60  50  69 W8        29.56F
GEORGETOWN     PTCLDY    55  53  93 CALM      29.61S
EASTON         PTCLDY    58  53  81 CALM      29.65S
CAMBRIDGE      PTCLDY    59  52  77 CALM      29.62R
SALISBURY      MOCLDY    59  52  77 CALM      29.61R
OCEAN CITY     MOCLDY    57  51  80 CALM      29.60F
WALLOPS ISLAND MOCLDY    58  54  86 CALM      29.60F
ACCOMACK*      CLOUDY    59  54  82 SW6       29.60S
$$

NCZ012>017-030>032-230500-
EASTERN NORTH CAROLINA

CITY           SKY/WX    TMP DP  RH WIND       PRES   REMARKS
ELIZABETH CITY CLOUDY    63  56  78 SW8       29.64S
AHOSKIE*       MOCLDY    61  54  76 CALM      29.66S
EDENTON*       CLOUDY    68  55  63 W3        29.65S
CURRITUCK*     CLOUDY    65  53  63 CALM      29.64S
KILL DEVIL HLS CLOUDY    66  51  57 SW6       29.63S
MANTEO         CLOUDY    63  52  66 W6        29.64F
CAPE HATTERAS  MOCLDY    61  32  33 W14G21    29.67S
GOLDSBORO      MOCLDY    66  57  73 SW6       29.68S
WASHINGTON     CLOUDY    66  57  72 SW3       29.67S
GREENVILLE     MOCLDY    64  55  72 W5        29.70S
NEW BERN       CLOUDY    69  56  62 SW5       29.69F
WILMINGTON     CLOUDY    68  58  70 W8        29.73S
$$

VAZ048-230500-
ELSEWHERE

CITY           SKY/WX    TMP DP  RH WIND       PRES   REMARKS
HARRISBURG PA  PTCLDY    52  35  52 NW21G31   29.66R
BALTIMORE      MOCLDY    57  53  86 NW5       29.64R
ANNAPOLIS      PTCLDY    59  53  80 NW8       29.63R
ANDREWS AFB    PTCLDY    58  51  78 NW8       29.65R
WILMINGTON DE  MOCLDY    61  45  55 W15       29.61S
PHILADELPHIA   MOCLDY    57  48  72 W10       29.60R
WILDWOOD NJ*     N/A    N/A N/A N/A MISG        N/A
ATLANTIC CITY  PTCLDY    57  46  66 W7        29.58S
HENDERSON NC   PTCLDY    62  54  74 SW5       29.68F
GREENSBORO     PTCLDY    61  56  83 W8        29.72F
ROCKY MOUNT    MOCLDY    67  54  63 W6        29.68S
FAYETTEVILLE   MOCLDY    63  57  81 W10       29.73R
CHARLOTTE      CLEAR     58  57  97 CALM      29.78S
$$

VAZ100-230500-
MARINE

STATION/POSITION TIME  TEMP    WIND        PRES    WAVE   SWELL
                       AIR SEA DIR/SP/G            HT/PER HT/PER
                 (UTC) (F)     (DEG/KT/KT) (MB)    (FT/S) (FT/S)
44066 TX TWR #4  0400   49 45  230/ 12/ 14 1000.2F   4/ 8   3/ 8
CAPE MAY NJ      0400   56 55  300/  3/  4 1001.9F
LEWES DE         0400   56 50  280/  2/  2 1001.5F
15NM E FENWICK I 0400   50 48              1002.4F   4/ 8
OCEAN-CITY-INLET 0400   60 54     CALM     1001.9F
WACHAPREAGUE VA  0400   60 63  270/  2/  2 1002.1S
THOMAS POINT MD  0400   60 53  310/  9/ 10 1003.7R
GOOSES REEF MD   0400   58      30/  6/  8   N/A
COVE POINT MD    0400   60      10/  5/  6 1003.1F
SOLOMONS ISLAND  0400      56                N/A
BISHOPS HEAD MD  0400   61 60  310/  8/  9 1003.2R
PINEY POINT MD   0400           10/  5/  6   N/A
POTOMAC MD       0400   58      10/  8/ 12 1002.1R
CAMBRIDGE MD     0400   60 57     CALM     1002.5S
LEWISETTA VA     0400   65 59  340/  7/ 10 1003.1R
RAPPAHANNOCK LGT 0400          200/  8/  8 1002.8S
STINGRAY PT      0400   60     250/  6/  6 1002.7F
YORK RVR RNG VA  0400   63     220/ 10/ 10 1001.9F
YORKTOWN VA      0400   67 58  220/  4/  5 1002.4F
JAMESTOWN VA     0400   65     280/  4/  4   N/A
DOMINION TERM VA 0400   67     270/  5/  6 1003.1F
KIPTOPEKE VA     0400      56  200/  3/  4   N/A
CHES BAY BRIDGE  0400   66 53  200/  8/  9 1002.9R
CAPE HENRY VA    0400   67     200/  7/  8   N/A
CHESAPEAKE LGHT  0300   66      60/  5/  5 1003.5F
WILLOUBY STN VA  0400   67     230/  9/  9 1002.1F
S CRANEY ISL VA  0400          200/  3/  4 1003.1F
CAPE HENRY BUOY  0400      50                N/A     3/ 8
1ST LANDING BUOY 0400      51                N/A     3/ 8   3/ 8
64NM E OF VA BCH 0400   53 49  280/  6/ 10 1002.8R   4/ 9   3/ 9
DUCK PIER NC     0400   65 48  240/  9/ 11 1002.5F
44100 DUCK FRF   0400      51                N/A     3/ 8   2/11
44056 DUCK FRF   0400      50                N/A     3/ 9   2/11
OREGON INLET NC  0400   62 60  210/ 10/ 11 1003.7F
HATTERAS NC      0400   62 57  240/ 11/ 16 1004.7R
DIAMOND SHLS NC  0400   72 76  250/ 23/ 27 1003.7F   6/ 8   3/ 8
CAPE LOOKOUT NC  0300   66     230/ 13/ 17 1005.4F
FRYING PAN SHLS  0400   68 67  270/ 19/ 23 1006.7R   6/ 5   2/ 9
$$



USA.gov is the U.S. government's official web portal to all federal, state and local government web resources and services.